Temperature
8 8 8 7 7 6 6 5 4 3 3 4 3 2 1 1 -0 -0 -1 -1 -1 -1 -1 -2 -2 -3 -3 -4 -4 -5 -5 -5 -4 -4 -4 -4 -3 -3
7 6 6 6 5 5 4 4 3 2 1 1 1 0 0 -0 -1 -1 -2 -2 -3 -2 -2 -3 -3 -4 -4 -5 -5 -5 -5 -5 -5 -5 -5 -4 -4 -4
6 5 5 4 4 3 3 2 1 1 -0 -0 -1 -1 -1 -1 -1 -2 -3 -3 -3 -3 -3 -4 -4 -4 -5 -5 -5 -5 -6 -6 -5 -5 -5 -5 -4 -4
4 4 3 3 2 2 1 1 0 -0 -1 -2 -2 -2 -2 -3 -3 -4 -4 -4 -4 -4 -4 -4 -4 -4 -5 -5 -5 -6 -6 -6 -6 -6 -6 -5 -5 -5
3 3 2 2 1 0 0 -0 -1 -1 -2 -3 -3 -4 -4 -4 -5 -5 -5 -5 -5 -4 -4 -4 -4 -5 -5 -5 -6 -6 -6 -6 -6 -6 -6 -6 -6 -6
2 2 1 1 -0 -1 -1 -1 -2 -2 -3 -4 -5 -5 -5 -5 -6 -6 -6 -6 -5 -5 -4 -5 -5 -5 -5 -5 -5 -5 -5 -5 -5 -6 -6 -6 -6 -6
2 1 1 0 -1 -1 -1 -2 -3 -4 -4 -5 -6 -6 -6 -7 -7 -7 -7 -7 -6 -5 -5 -5 -5 -5 -4 -5 -5 -5 -5 -5 -5 -6 -6 -6 -6 -6
1 0 -0 -1 -1 -2 -2 -3 -4 -5 -6 -7 -7 -8 -8 -8 -8 -8 -8 -8 -8 -6 -7 -6 -6 -5 -5 -5 -5 -5 -5 -5 -6 -6 -6 -7 -7 -7
-0 -1 -2 -2 -2 -2 -3 -4 -5 -5 -7 -8 -8 -8 -8 -8 -8 -8 -9 -9 -9 -8 -8 -7 -6 -5 -5 -5 -5 -5 -5 -5 -6 -6 -6 -7 -7 -7
-1 -1 -2 -2 -3 -4 -5 -5 -6 -6 -7 -8 -8 -8 -8 -8 -9 -9 -9 -9 -8 -7 -7 -7 -6 -6 -6 -5 -5 -5 -5 -5 -6 -6 -6 -7 -7 -7
-2 -3 -3 -4 -4 -5 -7 -8 -8 -7 -8 -8 -8 -8 -8 -8 -8 -8 -8 -8 -8 -7 -7 -8 -6 -7 -6 -5 -5 -5 -6 -6 -6 -6 -6 -6 -7 -7
-4 -4 -5 -5 -6 -7 -8 -9 -8 -8 -8 -7 -7 -7 -7 -7 -7 -8 -8 -8 -9 -9 -7 -8 -8 -8 -9 -6 -6 -6 -6 -6 -6 -6 -6 -6 -7 -8
-5 -5 -6 -6 -8 -9 -9 -9 -9 -9 -9 -8 -7 -7 -7 -7 -7 -7 -8 -8 -8 -8 -7 -9 -9 -9 -10 -9 -7 -6 -6 -6 -6 -6 -6 -6 -6 -7
-6 -7 -7 -8 -9 -9 -9 -9 -9 -9 -8 -8 -8 -7 -7 -7 -7 -7 -7 -8 -8 -8 -7 -8 -9 -9 -10 -10 -9 -7 -6 -6 -6 -6 -6 -6 -7 -7
-8 -8 -9 -9 -9 -8 -8 -8 -8 -8 -8 -8 -8 -7 -7 -7 -7 -7 -7 -7 -7 -6 -7 -7 -8 -9 -9 -10 -9 -8 -7 -6 -6 -6 -6 -7 -7 -7
-8 -8 -8 -8 -8 -8 -8 -8 -8 -9 -9 -8 -8 -8 -8 -7 -7 -7 -7 -7 -6 -5 -5 -6 -7 -8 -8 -8 -9 -8 -7 -7 -6 -7 -7 -7 -7 -7
-9 -8 -8 -8 -8 -8 -8 -8 -8 -8 -8 -8 -8 -8 -8 -8 -7 -7 -7 -7 -7 -6 -5 -5 -6 -7 -7 -8 -8 -7 -7 -7 -7 -8 -8 -8 -7 -7
-9 -8 -9 -9 -9 -9 -8 -8 -8 -8 -8 -8 -8 -8 -8 -8 -7 -7 -7 -7 -7 -7 -6 -6 -7 -7 -7 -7 -7 -8 -8 -8 -8 -8 -9 -9 -9 -7
-9 -9 -9 -9 -9 -9 -9 -9 -8 -8 -8 -8 -8 -8 -8 -8 -7 -7 -7 -7 -7 -7 -7 -7 -8 -9 -10 -10 -8 -8 -9 -9 -9 -9 -9 -9 -9 -7
-9 -9 -9 -9 -9 -9 -9 -9 -8 -8 -8 -8 -8 -8 -8 -8 -7 -7 -7 -7 -7 -8 -8 -7 -8 -9 -9 -9 -9 -8 -7 -8 -9 -9 -8 -8 -8 -7
-9 -10 -10 -10 -9 -9 -9 -9 -9 -8 -8 -8 -8 -8 -8 -8 -7 -7 -7 -7 -8 -8 -8 -8 -7 -8 -9 -9 -9 -8 -7 -6 -7 -8 -8 -8 -8 -7
-10 -10 -10 -10 -9 -9 -9 -9 -8 -8 -8 -8 -8 -8 -8 -8 -7 -7 -7 -7 -8 -8 -8 -8 -8 -8 -9 -9 -8 -8 -7 -6 -5 -6 -6 -7 -7 -7
-10 -9 -9 -9 -9 -9 -9 -9 -8 -8 -8 -8 -8 -8 -8 -8 -7 -7 -7 -7 -8 -8 -8 -8 -8 -8 -8 -8 -8 -8 -8 -7 -7 -6 -4 -5 -6 -6
Wind_Speed
8 8 5 4 4 3 4 4 5 3 4 4 3 3 6 5 10 11 10 16 20 21 22 23 23 23 24 24 25 25 26 26 26 27 27 28 28 29
7 8 6 3 3 3 3 3 3 5 4 4 5 3 5 7 11 13 15 18 20 21 22 23 24 25 25 25 25 26 26 27 27 28 28 28 29 29
8 7 6 4 3 3 3 3 3 4 5 4 3 3 3 5 10 14 15 16 16 20 23 24 24 24 25 25 26 26 27 27 27 28 28 28 29 29
9 7 5 4 4 3 3 3 3 4 5 5 3 3 6 6 6 7 13 15 16 21 24 24 24 24 24 24 25 26 26 27 28 28 28 29 30 30
8 7 5 4 3 3 3 3 3 4 5 5 4 4 5 5 5 7 9 11 16 18 21 22 23 23 23 25 26 27 28 29 29 29 29 30 30 31
8 6 5 3 3 3 3 4 4 4 4 4 5 5 5 6 5 6 8 6 9 14 19 19 20 22 25 27 29 29 29 29 29 29 29 30 30 31
7 6 4 3 3 4 4 5 5 4 4 4 5 4 5 5 6 6 10 9 9 9 8 8 11 13 19 24 26 27 28 28 29 29 30 30 31 31
6 4 3 3 2 2 5 6 6 5 4 4 4 6 7 7 7 9 9 11 8 4 5 10 9 12 11 17 24 28 29 30 30 30 30 31 31 31
6 4 3 2 2 3 6 8 8 11 11 7 7 8 9 8 8 10 10 11 12 8 10 15 10 13 11 19 26 29 31 31 31 30 30 29 29 30
5 4 2 1 3 5 5 5 5 6 9 7 7 9 10 9 10 11 11 9 9 9 7 10 12 13 13 13 25 29 31 30 29 28 28 28 28 28
3 2 1 3 8 9 5 4 6 6 11 15 16 16 19 21 17 8 6 8 12 10 5 5 7 9 11 12 16 23 25 26 27 29 29 29 29 28
1 1 4 6 9 10 5 4 6 7 7 8 8 11 12 15 16 7 5 7 8 7 4 4 5 6 8 6 7 9 14 23 28 30 30 29 28 18
2 2 3 8 10 11 10 3 8 10 4 4 7 8 7 6 6 6 6 7 10 9 7 5 6 5 7 8 7 8 11 13 14 18 24 27 27 21
2 3 5 10 11 11 9 11 15 11 4 6 7 8 7 8 8 7 10 12 14 15 15 12 10 10 11 14 12 10 9 10 12 14 12 20 22 24
3 7 8 10 10 8 11 13 9 4 5 6 8 8 7 8 9 9 9 10 13 17 19 17 13 13 13 14 13 14 14 12 12 11 10 10 11 11
4 4 6 8 8 9 8 7 5 5 6 6 8 9 9 8 8 8 9 10 11 11 10 14 12 13 14 15 15 17 15 10 9 11 12 13 12 12
2 2 3 3 5 5 5 5 5 5 6 6 8 9 10 10 10 8 7 8 9 11 14 9 7 10 14 15 16 17 16 15 14 12 12 15 14 12
5 3 3 4 5 6 7 7 7 6 6 7 8 8 9 10 11 10 9 10 11 13 13 13 12 13 10 10 17 17 15 15 14 13 13 16 17 12
3 3 4 5 5 5 5 6 6 7 7 7 8 8 9 9 10 11 10 10 12 13 13 12 11 12 15 17 9 13 14 15 15 15 13 14 17 15
2 4 5 5 5 6 6 6 7 8 7 7 8 8 8 9 10 11 11 12 13 14 15 12 10 11 14 17 17 17 16 15 14 16 15 14 15 20
4 4 5 5 6 6 6 7 7 8 8 8 8 9 8 9 10 11 12 17 16 14 15 15 14 19 15 13 14 14 14 14 17 16 16 16 16 15
5 5 5 6 6 6 6 7 7 8 8 8 8 9 9 9 11 14 13 14 14 14 16 15 14 13 12 15 17 18 20 19 18 23 22 20 14 9
5 6 6 6 6 6 6 7 9 9 9 9 9 9 10 11 12 13 14 14 14 15 16 16 14 12 13 14 16 17 20 20 17 16 16 19 21 25
Wind_Direction
130 123 117 113 111 116 127 142 156 201 254 259 256 232 232 282 314 318 310 311 309 308 305 302 300 298 296 294 292 290 289 288 287 285 284 282 280 279
117 114 104 106 117 125 140 149 162 177 224 245 242 249 264 288 302 311 306 307 308 305 302 300 298 296 294 292 291 290 289 287 285 283 281 280 279 278
113 118 121 127 139 151 148 161 180 178 222 255 252 259 269 277 291 297 298 293 290 299 301 299 297 296 294 293 292 290 288 285 283 282 281 281 280 280
118 122 131 138 158 165 173 189 201 203 214 249 254 255 256 266 270 280 293 295 292 297 298 299 298 298 296 294 292 290 289 287 285 283 281 280 279 278
125 134 139 145 176 182 192 206 217 222 212 231 254 248 259 266 275 277 280 282 288 293 297 298 297 297 295 295 294 293 291 288 285 281 279 277 276 275
111 112 115 138 188 200 210 220 224 231 228 236 254 260 261 263 264 280 294 280 287 292 290 290 292 295 294 293 292 290 288 286 283 280 278 276 273 272
103 98 103 134 205 209 221 223 219 228 238 248 260 268 274 277 278 281 296 297 286 276 274 272 280 282 284 286 288 287 285 283 281 279 277 275 274 272
109 101 107 100 62 346 301 278 247 235 232 232 251 269 278 275 278 287 293 300 298 266 279 289 281 284 281 278 283 285 285 285 283 282 280 278 276 274
110 109 103 68 26 311 297 294 292 291 285 279 276 273 278 278 278 283 282 282 286 287 294 292 284 283 281 281 285 286 287 287 286 284 282 279 276 273
121 127 131 289 295 283 258 256 262 270 280 280 259 263 267 270 266 278 286 289 282 279 271 282 288 284 284 278 283 284 285 286 286 285 283 282 280 278
122 139 228 269 294 299 287 261 270 272 289 294 294 293 297 301 302 300 296 298 298 294 263 262 281 287 287 280 275 279 282 286 288 288 286 284 281 278
159 248 293 301 302 306 296 276 283 281 281 291 297 298 294 292 297 288 273 282 290 292 253 250 278 301 298 268 254 266 276 282 284 284 284 283 282 280
215 249 274 308 311 312 319 320 300 306 305 306 303 298 293 287 284 275 259 256 273 273 271 272 277 269 271 289 284 270 270 275 279 280 282 282 281 279
255 266 279 306 321 328 330 316 314 324 336 312 304 301 301 299 296 286 276 262 256 262 271 271 272 276 280 285 288 286 276 273 275 277 274 279 280 277
276 307 319 331 340 340 325 324 334 337 311 304 301 298 292 286 292 294 289 279 273 267 266 259 258 267 269 275 279 286 293 290 276 269 270 266 265 267
317 337 351 350 344 333 331 331 321 304 303 299 301 300 301 297 296 296 301 308 304 294 260 245 247 254 267 270 275 280 281 278 278 273 274 276 269 261
20 50 359 345 340 331 323 318 312 314 312 304 301 303 303 302 300 302 294 298 291 296 304 299 254 247 254 264 272 272 275 276 275 276 278 281 275 262
11 360 341 334 326 322 319 317 313 306 302 300 296 293 294 296 298 298 292 292 292 293 294 299 304 304 291 262 240 257 269 276 280 278 275 279 281 269
16 334 318 309 303 298 295 295 295 294 293 289 286 286 287 290 292 296 298 296 294 294 292 292 292 295 301 305 277 236 258 280 285 284 279 275 278 279
319 301 295 295 294 293 292 292 293 296 292 287 284 283 283 286 291 293 294 294 297 298 299 295 286 286 290 294 296 291 273 271 282 286 286 281 277 277
297 288 284 286 287 286 285 285 285 287 285 285 285 283 284 286 289 290 293 295 298 297 298 299 293 293 290 289 291 293 292 278 276 282 287 288 288 286
286 286 287 283 283 282 283 285 286 285 285 284 284 285 286 285 287 290 292 294 294 293 294 295 294 296 295 298 299 300 302 304 299 292 282 274 278 281
281 284 284 283 279 277 278 279 281 284 283 283 284 285 287 288 289 289 289 290 292 295 299 304 305 302 299 298 299 300 300 304 307 307 301 290 280 271
Height
1495 1497 1499 1501 1502 1503 1504 1504 1505 1503 1502 1502 1501 1499 1498 1495 1492 1488 1485 1482 1479 1476 1474 1471 1469 1466 1464 1462 1460 1459 1458 1456 1455 1454 1453 1452 1451 1451
1489 1491 1494 1496 1497 1498 1498 1498 1498 1498 1496 1495 1495 1494 1491 1489 1486 1482 1478 1475 1471 1468 1466 1463 1460 1458 1455 1453 1452 1450 1449 1447 1446 1445 1444 1443 1442 1441
1482 1486 1489 1491 1493 1493 1493 1493 1493 1492 1490 1488 1488 1486 1484 1481 1478 1475 1471 1467 1464 1461 1458 1455 1452 1450 1447 1445 1443 1441 1439 1438 1436 1435 1434 1433 1432 1432
1478 1481 1484 1486 1488 1488 1488 1488 1488 1486 1484 1481 1480 1478 1476 1473 1470 1467 1463 1460 1457 1454 1451 1448 1445 1442 1439 1437 1435 1433 1431 1429 1427 1425 1424 1423 1422 1421
1474 1476 1479 1481 1483 1483 1483 1483 1482 1480 1478 1475 1472 1470 1468 1466 1462 1458 1456 1452 1450 1447 1443 1440 1438 1435 1432 1429 1427 1424 1421 1418 1416 1415 1413 1412 1411 1410
1469 1472 1474 1476 1477 1477 1477 1476 1475 1474 1472 1468 1466 1463 1461 1459 1455 1451 1446 1444 1442 1439 1436 1433 1430 1428 1425 1422 1418 1414 1411 1408 1406 1404 1402 1401 1400 1399
1466 1468 1470 1471 1471 1471 1471 1470 1469 1467 1465 1462 1459 1457 1454 1452 1449 1445 1440 1436 1433 1431 1427 1424 1421 1418 1416 1413 1409 1406 1402 1399 1396 1394 1392 1391 1389 1388
1463 1464 1465 1465 1465 1465 1464 1464 1463 1461 1459 1456 1453 1451 1448 1446 1443 1439 1435 1430 1425 1423 1419 1415 1414 1409 1406 1403 1400 1397 1393 1390 1387 1384 1382 1380 1378 1377
1459 1460 1461 1461 1460 1459 1458 1457 1457 1455 1453 1451 1448 1445 1443 1440 1437 1433 1430 1425 1421 1417 1413 1405 1404 1400 1397 1394 1391 1388 1384 1380 1377 1374 1371 1369 1367 1365
1456 1457 1457 1456 1455 1454 1452 1451 1450 1449 1447 1444 1442 1439 1437 1434 1432 1428 1424 1418 1414 1411 1408 1399 1394 1391 1386 1383 1381 1378 1374 1371 1367 1364 1361 1358 1356 1354
1454 1453 1452 1451 1450 1448 1447 1445 1443 1442 1441 1438 1436 1434 1432 1429 1426 1422 1417 1412 1405 1402 1401 1394 1386 1380 1374 1370 1369 1366 1363 1360 1357 1353 1350 1347 1344 1342
1450 1449 1447 1446 1444 1443 1441 1439 1437 1435 1433 1431 1430 1428 1426 1423 1420 1417 1412 1407 1401 1394 1391 1388 1380 1375 1363 1356 1356 1354 1351 1349 1346 1342 1338 1335 1332 1330
1446 1444 1442 1441 1439 1438 1437 1435 1432 1430 1428 1426 1424 1422 1420 1417 1414 1411 1408 1403 1397 1390 1387 1382 1374 1369 1363 1351 1344 1343 1341 1337 1333 1329 1326 1323 1321 1318
1442 1440 1438 1437 1436 1434 1432 1429 1428 1426 1423 1421 1419 1416 1414 1411 1408 1405 1402 1397 1392 1386 1381 1377 1369 1363 1356 1348 1339 1333 1331 1327 1323 1318 1315 1312 1310 1308
1437 1436 1435 1433 1431 1429 1427 1425 1423 1421 1419 1417 1414 1412 1409 1406 1402 1399 1395 1390 1385 1380 1375 1369 1363 1357 1351 1343 1334 1327 1321 1316 1313 1309 1305 1302 1298 1296
1434 1433 1431 1429 1427 1425 1423 1422 1420 1418 1416 1413 1410 1407 1404 1401 1397 1393 1387 1382 1375 1370 1368 1362 1356 1350 1343 1336 1329 1320 1315 1309 1303 1300 1295 1290 1287 1285
1431 1429 1427 1426 1424 1422 1421 1419 1417 1416 1413 1410 1407 1403 1400 1396 1392 1388 1383 1377 1370 1363 1357 1355 1349 1343 1335 1329 1321 1313 1307 1300 1295 1291 1286 1280 1276 1274
1428 1426 1424 1423 1421 1419 1418 1416 1415 1413 1410 1407 1403 1400 1396 1392 1388 1384 1379 1372 1365 1358 1352 1346 1340 1332 1326 1318 1314 1306 1299 1292 1287 1282 1278 1272 1264 1262
1426 1424 1422 1421 1419 1417 1415 1413 1411 1409 1406 1403 1399 1396 1392 1388 1383 1378 1373 1367 1360 1352 1346 1340 1334 1328 1320 1310 1302 1300 1293 1285 1279 1274 1269 1264 1256 1250
1424 1422 1420 1418 1417 1415 1413 1410 1408 1405 1402 1399 1395 1392 1388 1383 1378 1373 1367 1361 1354 1346 1339 1334 1329 1324 1317 1308 1296 1287 1286 1279 1272 1265 1259 1253 1246 1241
1422 1420 1418 1416 1414 1412 1409 1407 1404 1401 1398 1394 1391 1387 1383 1378 1373 1368 1362 1356 1349 1342 1334 1327 1322 1317 1310 1302 1292 1281 1275 1272 1266 1259 1251 1244 1237 1231
1419 1417 1415 1413 1411 1409 1406 1403 1400 1397 1393 1389 1386 1382 1378 1373 1368 1362 1356 1350 1343 1337 1329 1321 1314 1309 1303 1297 1287 1277 1266 1260 1255 1249 1243 1238 1232 1224
1416 1414 1412 1410 1408 1405 1402 1399 1396 1392 1389 1385 1381 1377 1373 1368 1363 1357 1351 1345 1338 1331 1324 1316 1308 1302 1296 1289 1281 1271 1261 1253 1245 1238 1232 1229 1224 1218